Weather in Gorin

Russia / Khabarovsk Krai     51°11′53″N   136°39′19″E
temp.,
°C
wind,
m/s
gust,
m/s
humid.,
%
clouds,
%
prec.,
mm/h
press.,
hPa
HPBL,
m
20 september, mon
mon2001:00+6w26665 0.0 1014136
04:00+6w28650 0.0 1014181
07:00+8w310570 0.0 1015401
10:00+14w610420 0.0 10141112
13:00+17wnw6103350 0.0 10131761
16:00+19w511353 0.0 10112167
19:00+14w4105111 0.0 1012272
22:00+9wsw11705 0.0 101317
21 september, tue
tue2101:00+8ssw11740 0.0 101310
04:00+6s22795 0.0 101313
07:00+6sse228147 0.0 101429
10:00+13sse33606 0.0 1013388
13:00+17sse22487 0.0 1011838
16:00+18ese2145100 0.0 10101165
19:00+13ese2265100 0.0 101213
22:00+10n1171100 0.0 101311
22 september, wed
wed2201:00+9n228699 0.0 101426
04:00+7nnw378899 0.0 1015206
07:00+6nnw38797 0.0 1016265
10:00+10n465411 0.0 1017658
13:00+15nne46376 0.0 10171540
16:00+16nne563699 0.0 10161986
19:00+11nne411537 0.0 1018357
22:00+6n11733 0.0 102010
23 september, thu
thu2301:00+4nnw23815 0.0 102148
04:00+3nw24905 0.0 102371
07:00+2wnw23944 0.0 102455
10:00+9nnw35670 0.0 1024539
13:00+14n344820 0.0 10231542
16:00+14ne3553100 0.0 10221184
19:00+9nne227091 0.0 102410
22:00+10n116785 0.0 102519
24 september, fri
fri2401:00+6nw118310 0.0 102510
04:00+5nnw11895 0.0 102610
07:00+4wnw11915 0.0 102610
10:00+12nw11610 0.0 1026403
13:00+16ne11460 0.0 10251115
16:00+16e11430 0.0 10241258
19:00+10sse11650 0.0 102410
22:00+8sse11720 0.0 102410